Stündliche Wetter Volodarskoe

Heute, 1 Oktober, Donnerstag

Zeit Temperatur Niederschläge Wind Luftdruck Luftfeuchtigkeit
00:00 +17°C° 0 mm 8 m/S 748 mmHg 62%
01:00 +16°C° 0 mm 8 m/S 748 mmHg 64%
02:00 +16°C° 0 mm 8 m/S 749 mmHg 67%
03:00 +15°C° 0 mm 8 m/S 749 mmHg 68%
04:00 +15°C° 0 mm 8 m/S 749 mmHg 70%
05:00 +15°C° 0 mm 8 m/S 749 mmHg 72%
06:00 +15°C° 0 mm 8 m/S 749 mmHg 71%
07:00 +15°C° 0 mm 9 m/S 749 mmHg 71%
08:00 +16°C° 0 mm 9 m/S 749 mmHg 68%
09:00 +16°C° 0 mm 9 m/S 749 mmHg 64%
10:00 +17°C° 0 mm 8 m/S 749 mmHg 60%
11:00 +18°C° 0 mm 8 m/S 749 mmHg 56%
12:00 +17°C° 0.5 mm 6 m/S 749 mmHg 62%
13:00 +17°C° 0.5 mm 4 m/S 749 mmHg 69%
14:00 +16°C° 0.5 mm 3 m/S 749 mmHg 76%
15:00 +14°C° 1.2 mm 3 m/S 749 mmHg 78%
16:00 +14°C° 1.2 mm 3 m/S 749 mmHg 81%
17:00 +14°C° 1.2 mm 4 m/S 749 mmHg 84%
18:00 +15°C° 0.1 mm 4 m/S 749 mmHg 77%
19:00 +15°C° 0.1 mm 4 m/S 749 mmHg 69%
20:00 +17°C° 0.1 mm 4 m/S 749 mmHg 61%
21:00 +16°C° 0 mm 5 m/S 749 mmHg 61%
22:00 +16°C° 0 mm 5 m/S 749 mmHg 62%
23:00 +16°C° 0 mm 5 m/S 749 mmHg 62%

Morgen, 2 Oktober, Freitag

Zeit Temperatur Niederschläge Wind Luftdruck Luftfeuchtigkeit
00:00 +16°C° 0 mm 5 m/S 750 mmHg 63%
01:00 +15°C° 0 mm 5 m/S 750 mmHg 65%
02:00 +15°C° 0 mm 6 m/S 750 mmHg 66%
03:00 +15°C° 0 mm 5 m/S 750 mmHg 67%
04:00 +14°C° 0 mm 5 m/S 750 mmHg 68%
05:00 +14°C° 0 mm 5 m/S 750 mmHg 69%
06:00 +15°C° 0 mm 5 m/S 751 mmHg 67%
07:00 +15°C° 0 mm 5 m/S 751 mmHg 64%
08:00 +16°C° 0 mm 6 m/S 751 mmHg 61%
09:00 +17°C° 0 mm 6 m/S 751 mmHg 59%
10:00 +19°C° 0 mm 5 m/S 752 mmHg 56%
11:00 +19°C° 0 mm 5 m/S 752 mmHg 53%
12:00 +20°C° 0 mm 5 m/S 752 mmHg 51%
13:00 +21°C° 0 mm 4 m/S 752 mmHg 49%
14:00 +21°C° 0 mm 4 m/S 752 mmHg 47%
15:00 +20°C° 0 mm 3 m/S 752 mmHg 51%
16:00 +20°C° 0 mm 2 m/S 753 mmHg 54%
17:00 +19°C° 0 mm 2 m/S 753 mmHg 57%
18:00 +18°C° 0 mm 2 m/S 753 mmHg 61%
19:00 +18°C° 0 mm 3 m/S 753 mmHg 64%
20:00 +17°C° 0 mm 4 m/S 754 mmHg 67%
21:00 +17°C° 0 mm 4 m/S 754 mmHg 72%
22:00 +15°C° 0 mm 4 m/S 754 mmHg 77%
23:00 +15°C° 0 mm 4 m/S 754 mmHg 81%

übermorgen, 3 Oktober, Samstag

Zeit Temperatur Niederschläge Wind Luftdruck Luftfeuchtigkeit
00:00 +16°C° 0.1 mm 3 m/S 754 mmHg 82%
01:00 +14°C° 0.1 mm 3 m/S 754 mmHg 83%
02:00 +14°C° 0.1 mm 3 m/S 754 mmHg 84%
03:00 +14°C° 0 mm 4 m/S 755 mmHg 86%
04:00 +14°C° 0 mm 4 m/S 755 mmHg 88%
05:00 +13°C° 0 mm 4 m/S 755 mmHg 90%
06:00 +14°C° 0 mm 5 m/S 755 mmHg 86%
07:00 +15°C° 0 mm 5 m/S 755 mmHg 81%
08:00 +16°C° 0 mm 6 m/S 756 mmHg 77%
09:00 +17°C° 0 mm 5 m/S 756 mmHg 72%
10:00 +19°C° 0 mm 5 m/S 756 mmHg 68%
11:00 +20°C° 0 mm 5 m/S 756 mmHg 63%
12:00 +20°C° 0 mm 5 m/S 756 mmHg 59%
13:00 +21°C° 0 mm 4 m/S 756 mmHg 55%
14:00 +21°C° 0 mm 4 m/S 756 mmHg 52%
15:00 +21°C° 0 mm 3 m/S 756 mmHg 53%
16:00 +20°C° 0 mm 3 m/S 756 mmHg 54%
17:00 +19°C° 0 mm 2 m/S 756 mmHg 56%
18:00 +18°C° 0 mm 3 m/S 756 mmHg 56%
19:00 +18°C° 0 mm 4 m/S 756 mmHg 56%
20:00 +16°C° 0 mm 5 m/S 756 mmHg 57%
21:00 +16°C° 0 mm 5 m/S 756 mmHg 60%
22:00 +15°C° 0 mm 5 m/S 756 mmHg 63%
23:00 +15°C° 0 mm 5 m/S 756 mmHg 66%

4 Oktober, Sonntag

Zeit Temperatur Niederschläge Wind Luftdruck Luftfeuchtigkeit
00:00 +14°C° 0 mm 4 m/S 756 mmHg 66%
01:00 +14°C° 0 mm 4 m/S 756 mmHg 67%
02:00 +13°C° 0 mm 4 m/S 757 mmHg 67%
03:00 +13°C° 0 mm 4 m/S 757 mmHg 67%
04:00 +12°C° 0 mm 4 m/S 757 mmHg 67%
05:00 +12°C° 0 mm 4 m/S 757 mmHg 67%
06:00 +13°C° 0 mm 5 m/S 757 mmHg 63%
07:00 +14°C° 0 mm 5 m/S 757 mmHg 58%
08:00 +16°C° 0 mm 6 m/S 757 mmHg 54%
09:00 +17°C° 0 mm 6 m/S 757 mmHg 51%
10:00 +20°C° 0 mm 6 m/S 757 mmHg 49%
11:00 +21°C° 0 mm 7 m/S 757 mmHg 46%
12:00 +21°C° 0 mm 6 m/S 757 mmHg 43%
13:00 +22°C° 0 mm 6 m/S 757 mmHg 40%
14:00 +22°C° 0 mm 6 m/S 757 mmHg 37%
15:00 +21°C° 0 mm 6 m/S 757 mmHg 39%
16:00 +20°C° 0 mm 5 m/S 757 mmHg 42%
17:00 +19°C° 0 mm 5 m/S 757 mmHg 44%
18:00 +17°C° 0 mm 5 m/S 757 mmHg 40%
19:00 +17°C° 0 mm 5 m/S 758 mmHg 36%
20:00 +16°C° 0 mm 5 m/S 758 mmHg 33%
21:00 +16°C° 0 mm 5 m/S 758 mmHg 31%
22:00 +15°C° 0 mm 5 m/S 758 mmHg 29%
23:00 +15°C° 0 mm 5 m/S 758 mmHg 28%

5 Oktober, Montag

Zeit Temperatur Niederschläge Wind Luftdruck Luftfeuchtigkeit
00:00 +14°C° 0 mm 5 m/S 758 mmHg 28%
01:00 +14°C° 0 mm 6 m/S 758 mmHg 29%
02:00 +14°C° 0 mm 6 m/S 758 mmHg 29%
03:00 +13°C° 0 mm 6 m/S 758 mmHg 31%
04:00 +13°C° 0 mm 6 m/S 758 mmHg 32%
05:00 +11°C° 0 mm 6 m/S 759 mmHg 33%
06:00 +13°C° 0 mm 6 m/S 759 mmHg 34%
07:00 +14°C° 0 mm 7 m/S 759 mmHg 34%
08:00 +15°C° 0 mm 7 m/S 759 mmHg 35%
09:00 +17°C° 0 mm 7 m/S 759 mmHg 33%
10:00 +18°C° 0 mm 8 m/S 759 mmHg 30%
11:00 +21°C° 0 mm 8 m/S 759 mmHg 28%
12:00 +22°C° 0 mm 8 m/S 759 mmHg 25%
13:00 +22°C° 0 mm 7 m/S 759 mmHg 23%
14:00 +23°C° 0 mm 7 m/S 759 mmHg 21%
15:00 +22°C° 0 mm 7 m/S 758 mmHg 21%
16:00 +21°C° 0 mm 6 m/S 758 mmHg 22%
17:00 +20°C° 0 mm 5 m/S 758 mmHg 23%
18:00 +19°C° 0 mm 5 m/S 758 mmHg 24%
19:00 +17°C° 0 mm 5 m/S 758 mmHg 24%
20:00 +16°C° 0 mm 5 m/S 759 mmHg 25%
21:00 +16°C° 0 mm 6 m/S 759 mmHg 28%
22:00 +15°C° 0 mm 6 m/S 759 mmHg 32%
23:00 +15°C° 0 mm 6 m/S 758 mmHg 35%

6 Oktober, Dienstag

Zeit Temperatur Niederschläge Wind Luftdruck Luftfeuchtigkeit
00:00 +14°C° 0 mm 6 m/S 758 mmHg 39%
01:00 +14°C° 0 mm 6 m/S 758 mmHg 43%
02:00 +13°C° 0 mm 6 m/S 758 mmHg 47%
03:00 +13°C° 0 mm 6 m/S 758 mmHg 50%
04:00 +13°C° 0 mm 6 m/S 758 mmHg 52%
05:00 +11°C° 0 mm 6 m/S 758 mmHg 55%
06:00 +12°C° 0 mm 7 m/S 758 mmHg 52%
07:00 +14°C° 0 mm 7 m/S 758 mmHg 50%
08:00 +15°C° 0 mm 7 m/S 758 mmHg 47%
09:00 +17°C° 0 mm 8 m/S 758 mmHg 41%
10:00 +18°C° 0 mm 8 m/S 758 mmHg 36%
11:00 +21°C° 0 mm 8 m/S 758 mmHg 30%
12:00 +21°C° 0 mm 8 m/S 758 mmHg 27%
13:00 +22°C° 0 mm 8 m/S 757 mmHg 25%
14:00 +23°C° 0 mm 8 m/S 757 mmHg 22%
15:00 +22°C° 0 mm 7 m/S 757 mmHg 23%
16:00 +21°C° 0 mm 6 m/S 757 mmHg 25%
17:00 +19°C° 0 mm 6 m/S 756 mmHg 26%
18:00 +19°C° 0 mm 6 m/S 756 mmHg 29%
19:00 +17°C° 0 mm 6 m/S 756 mmHg 31%
20:00 +17°C° 0 mm 6 m/S 756 mmHg 33%
21:00 +16°C° 0 mm 6 m/S 756 mmHg 36%
22:00 +16°C° 0 mm 6 m/S 756 mmHg 38%
23:00 +15°C° 0 mm 7 m/S 756 mmHg 41%
Mehr zeigen